www.pogodaiklimat.ru

Погода и климат >> Архив погоды >> Китай >> Xin Barag Youqi


ПОГОДА в Xin Barag Youqi

  • Прогноз погоды в Xin Barag Youqi
  • Монитор погоды в Xin Barag Youqi
  • Климат города

АРХИВ ПОГОДЫ в Xin Barag Youqi

Время (UTC), дата Ветер
(напр.,м/с)
 
Видим.   Явления Облачность Т
(С)
Тd
(С)
f
(%)
Тe
(С)
Тes
(С)
Комфортность P
(гПа)
Po
(гПа)
Тmin
(С)
Tmax
(С)
R
(мм)
R24
(мм)
S
(см)
06 16.01 ЮЗ 5 30 км 9/9
[]
-16.0 -20.9 66 -25 -25 1013.9 942.1 -28.7
09 16.01 С 4 30 км 9/9
[]
-19.7 -23.0 75 -29 -29 1012.9 1013.0
12 16.01 С 4 30 км 8/8
[]
-20.0 -22.8 78 -29 -29 1012.9 1036.6
15 16.01 С 3 30 км ?/? -22.2 -25.3 76 -30 -30 1013.4 1013.0
18 16.01 С 3 30 км ?/? -23.6 -27.1 73 -32 -32 опасность
обморожения
1013.7 942.4 -15.0
21 16.01 З 4 30 км ?/? -24.6 -27.6 76 -35 -35 опасность
обморожения
1016.3 1016.0
00 17.01 З 2 15 км 3/3
[]
-27.2 -30.6 73 -34 -34 опасность
обморожения
1018.7 946.0
03 17.01 З 6 30 км 4/4
[]
-21.1 -25.1 70 -32 -32 опасность
обморожения
1018.8 1019.0
06 17.01 З 3 30 км 6/6
[]
-15.6 -21.4 61 -22 -22 1016.8 1042.7 -27.7
09 17.01 ЮЗ 4 17 км 3/3
[]
-18.8 -22.9 70 -27 -27 1017.8 1018.0
12 17.01 З 1 10 км ясно -22.5 -26.8 68 -26 -26 1018.9 945.9
15 17.01 З 5 30 км ?/? -25.0 -27.9 77 -36 -36 опасность
обморожения
1018.7 922.4
18 17.01 З 3 29 км ?/? -26.7 -29.8 75 -36 -36 опасность
обморожения
1018.8 946.8 -14.1
21 17.01 З 4 30 км ?/? -24.4 -27.9 73 -34 -34 опасность
обморожения
1018.4 1018.0
00 18.01 З 4 26 км 8/8
[]
-27.4 -30.8 73 -38 -38 опасность
обморожения
1019.7 946.6
03 18.01 В 1 20 км 8/8
[]
-19.7 -24.8 64 -23 -22 1017.7 920.7
06 18.01 ЮЗ 5 21 км 3/3
[]
-15.5 -22.1 57 -24 -24 1014.1 942.5 -27.6
09 18.01 ЮВ 2 3700 м 3/3
[]
-18.7 -23.3 67 -24 -24 1014.0 1014.0
12 18.01 С 3 30 км 3/3
[]
-25.1 -28.4 74 -34 -34 опасность
обморожения
1016.4 943.2
15 18.01 СЗ 1 30 км ?/? -25.4 -28.3 77 -29 -29 1016.3 920.3
18 18.01 З 2 30 км ?/? -25.9 -28.9 76 -33 -33 опасность
обморожения
1016.7 945.0 -15.1
21 18.01 З 3 30 км ?/? -22.6 -26.3 72 -31 -31 опасность
обморожения
1017.1 1017.0
00 19.01 СЗ 5 30 км 9/9
[]
-17.1 -22.5 63 -26 -26 1019.1 947.1
03 19.01 С 7 30 км 3/3
[]
-18.0 -27.3 44 -29 -29 1021.9 924.6
06 19.01 СЗ 8 27 км 3/3
[]
-18.2 -26.3 49 -30 -30 1022.4 949.9 -27.2
09 19.01 С 3 30 км 5/5
[]
-20.7 -27.6 54 -28 -28 1023.1 1023.0
12 19.01 СЗ 4 30 км 5/5
[]
-25.9 -30.9 63 -36 -36 опасность
обморожения
1024.9 952.4
15 19.01 З 4 24 км ?/? -27.2 -32.6 60 -38 -38 опасность
обморожения
1026.2 1026.0
18 19.01 СЗ 4 30 км ?/? -28.0 -33.7 58 -39 -39 опасность
обморожения
1026.9 953.8 -16.6
21 19.01 СЗ 5 30 км ?/? -26.8 -32.8 57 -39 -39 опасность
обморожения
1027.3 1027.0
00 20.01 СЗ 7 30 км 4/4
[]
-28.1 -33.6 59 -42 -42 опасность
обморожения
1029.9 955.5
03 20.01 С 8 29 км 4/4
[]
-24.9 -31.0 57 -39 -38 опасность
обморожения
1030.9 1031.0
06 20.01 С 9 20 км 3/3
[]
-22.6 -28.8 57 -36 -36 опасность
обморожения
1030.4 1056.9 -29.4
09 20.01 В 1 30 км 3/3
[]
-25.6 -31.4 58 -29 -29 1032.7 1033.0
12 20.01 СЗ 3 30 км 3/3
[]
-27.1 -33.1 57 -36 -36 опасность
обморожения
1034.1 959.2
15 20.01 З 3 30 км ?/? -29.6 -34.2 64 -39 -39 опасность
обморожения
1034.6 934.7
18 20.01 З 2 30 км ?/? -30.5 -34.9 65 -38 -38 опасность
обморожения
1034.3 959.7 -22.4
21 20.01 СЗ 4 30 км ?/? -31.7 -36.1 65 -43 -43 опасность
обморожения
1034.3 1034.0
00 21.01 СЗ 4 30 км 3/3
[]
-30.6 -35.9 60 -42 -42 опасность
обморожения
1035.4 960.0
03 21.01 С 10 30 км 8/8
[]
-26.4 -32.2 58 -42 -42 опасность
обморожения
1035.0 1035.0
06 21.01 С 12 24 км 3/3
[]
-25.0 -31.4 55 -41 -41 опасность
обморожения
1033.6 1059.6 -32.0
09 21.01 СЗ 5 30 км 3/3
[]
-26.8 -32.8 57 -39 -39 опасность
обморожения
1034.0 1034.0
12 21.01 СЗ 6 30 км ясно -28.7 -33.7 62 -42 -42 опасность
обморожения
1034.0 958.5
15 21.01 СЗ 5 30 км ?/? -30.3 -35.9 58 -43 -43 опасность
обморожения
1033.4 1033.0
18 21.01 СЗ 6 30 км ?/? -31.0 -36.6 58 -45 -45 опасность
обморожения
1032.3 1057.7 -24.6
21 21.01 З 6 30 км ?/? -31.4 -37.3 56 -45 -45 опасность
обморожения
1031.5 1032.0
00 22.01 З 3 30 км 3/3
[]
-31.3 -37.6 54 -41 -41 опасность
обморожения
1031.3 955.9
03 22.01 СЗ 9 27 км 3/3
[]
-27.8 -34.8 51 -43 -43 опасность
обморожения
1029.1 1029.0
06 22.01 С 10 30 км 9/9
[]
-26.0 -33.0 52 -42 -42 опасность
обморожения
1027.1 1052.6 -31.7
09 22.01 СЗ 8 30 км 9/9
[]
-26.1 -31.6 60 -40 -40 опасность
обморожения
1027.0 1027.0
12 22.01 С 7 21 км 9/9
[]
-28.1 -32.0 69 -42 -42 опасность
обморожения
1027.8 952.7
15 22.01 С 6 23 км ?/? -29.8 -33.8 68 -43 -43 опасность
обморожения
1027.6 1028.0
18 22.01 СЗ 6 30 км ?/? -30.3 -35.6 60 -44 -44 опасность
обморожения
1027.8 953.2 -25.7
21 22.01 С 8 30 км ?/? -31.1 -36.5 59 -47 -47 опасность
обморожения
1028.0 1028.0
00 23.01 СЗ 5 30 км ясно -32.6 -37.6 61 -46 -46 опасность
обморожения
1029.3 953.9

 

Местоположение метеостанции Xin Barag Youqi (Китай): широта 48.67 долгота 116.81 высота над уровнем моря 556 м.

В архиве по умолчанию представлена погода в Xin Barag Youqi за последнюю неделю. Архивные данные за месяц целиком и за предыдущие месяцы, начиная с января 2011 года, Вы можете получить, выбрав интересующий диапазон дат из раскрывающегося списка и нажав кнопку "Ввод!".

Внимание! Время в таблицах - всемирное. Для получения местного времени необходимо прибавить поправку, которая в Xin Barag Youqi равна 8 ч.

Смотрите также архив погоды в соседних городах и на ближайших метеорологических станциях:

Погода в Забайкальске (Забайкальский край, Россия) (113 км)
Погода в Соловьевске (Забайкальский край, Россия) (159 км)
Погода в Кайластуе (Забайкальский край, Россия) (168 км)
Погода в Khalkh-Gol (Монголия) (177 км)
Погода в Choibalsan (Монголия) (179 км)
Погода в Matad (Монголия) (189 км)
Погода в Борзе (Забайкальский край, Россия) (194 км)
Погода в Dashbalbar (Монголия) (201 км)
Погода в Hailar (Китай) (223 км)
Погода в Бырке (Забайкальский край, Россия) (236 км)

Пояснения к столбцам:

Ветер - указаны скорость ветра в м/с - средняя за 10 мин, порывы в срок и между сроками (в фигурных скобках) и направление, откуда дует ветер: С - северный, СВ - северо-восточный, В - восточный, ЮВ - юго-восточный, Ю - южный, ЮЗ - юго-западный, З - западный, СЗ - северо-западный.
Видимость - горизонтальная дальность видимости в метрах или километрах. При видимости от 1 до 10 км при отсутствии осадков обычно наблюдается дымка, при ухудшении видимости до 1 км и менее - туман. В сухую погоду видимость может ухудшаться дымом, пылью или мглою.
Явления - указаны атмосферные явления, наблюдавшиеся в срок или в последний час перед сроком; фигурными скобками обозначены явления, наблюдавшиеся между сроками (за 1-3 часа до срока); квадратными скобками обозначены град или гололедные отложения с указанием их диаметра в мм.
Облачность - указаны через наклонную черту общая и нижняя облачность в баллах и высота нижней границы облаков в метрах; квадратными скобками обозначены формы облаков: Ci - перистые, Cs - перисто-слоистые, Cc - перисто-кучевые, Ac - высококучевые, As - высокослоистые, Sc - слоисто-кучевые, Ns - слоисто-дождевые, Cu - кучевые, Cb - кучево-дождевые. Подробнее классификацию облаков см. в Атласе облаков (PDF).
T - Температура воздуха - температура, измеренная на высоте 2 м над землей.
Td - Температура точки росы - температура, при понижении до которой содержащийся в воздухе водяной пар достигнет насыщения.
f - Относительная влажность воздуха - влажноcть воздуха, измеренная на высоте 2 м над землей.
Te - Эффективная температура - температура, которую ощущает одетый по сезону человек в тени. Характеристика душности погоды. При расчете учитывается влияние влажности воздуха и скорости ветра на теплоощущения человека.
Tes - Эффективная температура на солнце - температура, которую ощущает человек, с поправкой на солнечный нагрев. Характеристика знойности погоды. Зависит от высоты солнца над горизонтом, облачности и скорости ветра. Ночью, в пасмурную погоду, а также при ветре 12 м/с и более поправка равна нулю.
P - Атмосферное давление - приведенное к уровню моря атмосферное давление.
Po - Атмосферное давление - измеренное на уровне метеостанции атмосферное давление.
Tmin - Минимальная температура - минимум температуры воздуха на высоте 2 м над землей.
Tmax - Максимальная температура - максимум температуры воздуха на высоте 2 м над землей.
R - Количество осадков - Количество выпавших осадков за период времени, мм. При наведении курсора мыши на число - период времени, за который выпало указанное количество осадков.
R24 - Количество осадков - Количество выпавших осадков за 24 часа, мм.
S - Снежный покров - Высота снежного покрова, см. При наведении курсора мыши на число - состояние снежного покрова и степень покрытия местности в баллах.